Change the Weather History Date:

Saturday, February 15, 2014

  Actual Average Record
Temperature  
Mean Temperature 48 °F -  
Max Temperature 52 °F - - ()
Min Temperature 43 °F - - ()
Degree Days  
Heating Degree Days 18    
Moisture  
Dew Point 41 °F    
Average Humidity 73    
Maximum Humidity 88    
Minimum Humidity 53    
Precipitation  
Precipitation 0.01 in - - ()
Sea Level Pressure  
Sea Level Pressure 29.31 in    
Wind  
Wind Speed 26 mph ()    
Max Wind Speed 43 mph    
Max Gust Speed -    
Visibility 7.7 miles    
Events Rain    
T = Trace of Precipitation, MM = Missing Value Source: Averaged Metar Reports

Daily Weather History Graph

Daily Weather History Graph

Search for Another Location

Airport or City:

Trip Planner

Search our weather history database for the weather conditions in past years. The results will help you decide how hot, cold, wet, or windy it might be!

Date:

Astronomy

Feb. 15, 2014 Rise Set
Actual Time 7:28 AM GMT 5:33 PM GMT
Civil Twilight 6:54 AM GMT 6:07 PM GMT
Nautical Twilight 6:16 AM GMT 6:45 PM GMT
Astronomical Twilight 5:38 AM GMT 7:23 PM GMT
Moon 6:30 PM GMT (2/15) 7:12 AM GMT (2/15)
Length of Visible Light 11h 13m
Length of Day
10h 05m
Full, 100% of the Moon is Illuminated
Feb 15
Full
Feb 22
Last Quarter
Mar 1
New
Mar 8
First Quarter
Mar 16
Full

Hourly Weather History & Observations

Time (GMT) Temp. Dew Point Humidity Pressure Visibility Wind Dir Wind Speed Gust Speed Precip Events Conditions
12:00 AM 46 °F 41 °F 76% 28.92 in 5 mi SSE 41.4 mph - - Rain Rain
1:00 AM 44 °F 41 °F 83% 28.98 in 3 mi South 42.6 mph - - Rain Rain Showers
2:00 AM 46 °F 41 °F 77% 29.01 in 5 mi SSE 38.0 mph - - Rain Rain
3:00 AM 46 °F 41 °F 76% 29.05 in 6 mi South 34.5 mph - - Rain Light Rain Showers
4:00 AM 46 °F 39 °F 69% 29.09 in 7 mi South 38.0 mph - - Rain Rain
5:00 AM 47 °F 39 °F 66% 29.13 in 6 mi South 38.0 mph - -   Light Haze
6:00 AM 45 °F 41 °F 79% 29.15 in 4 mi South 32.2 mph - - Rain Rain
7:00 AM 47 °F 41 °F 72% 29.18 in 6 mi South 32.2 mph - -   Light Haze
8:00 AM 47 °F 41 °F 72% 29.22 in 6 mi South 32.2 mph - -   Partly Cloudy
9:00 AM 47 °F 41 °F 73% 29.25 in 7 mi South 27.6 mph - -   Scattered Clouds
10:00 AM 48 °F 42 °F 71% 29.26 in 6 mi South 34.5 mph - -  
11:00 AM 49 °F 40 °F 64% 29.30 in 9 mi South 29.9 mph - -  
12:00 PM 48 °F 40 °F 66% 29.34 in 6 mi South 29.9 mph - - Rain Light Rain Showers
1:00 PM 49 °F 40 °F 62% 29.36 in 17 mi South 20.7 mph - - Rain Rain
2:00 PM 51 °F 43 °F 65% 29.38 in 10 mi South 19.6 mph - - Rain Rain
3:00 PM 52 °F 40 °F 53% 29.41 in 11 mi South 18.4 mph - -   Scattered Clouds
4:00 PM 48 °F 42 °F 71% 29.46 in 17 mi SSW 12.7 mph - - Rain Rain
5:00 PM 48 °F 41 °F 68% 29.49 in 11 mi SW 12.7 mph - -   Scattered Clouds
6:00 PM 46 °F 41 °F 76%  in 11 mi SSW 11.5 mph - -   Scattered Clouds
7:00 PM 45 °F 40 °F 78% 29.58 in 9 mi SSW 12.7 mph - -  
8:00 PM 43 °F 39 °F 82% 29.61 in 9 mi South 9.2 mph - -   Scattered Clouds
9:00 PM 43 °F 40 °F 87% 29.64 in 4 mi SSW 10.4 mph - -   Light Haze
10:00 PM 44 °F 41 °F 84% 29.67 in 5 mi South 9.2 mph - -   Light Haze
11:00 PM 43 °F 41 °F 88% 29.68 in 4 mi SSW 9.2 mph - -   Light Haze